Orbital Elements at Epoch 2459000.5 (2020-May-31.0) TDB
Reference: JPL 15 (heliocentric ecliptic J2000)
Element | Value | Uncertainty (1-sigma) | Units |
e | .1976021800545555 | 3.9834e-08 | |
a | 3.095998134460384 | 2.6578e-08 | au |
q | 2.484222153646175 | 1.2689e-07 | au |
i | 11.81854274965967 | 6.9417e-06 | deg |
node | 156.6687777594557 | 2.4624e-05 | deg |
peri | 109.3186795962015 | 3.1393e-05 | deg |
M | 284.2788101853659 | 1.9991e-05 | deg |
tp | 2459419.018240707384 (2021-Jul-23.51824071) | 0.00011285 | TDB |
period | 1989.754347805293 5.45 | 2.5622e-05 7.015e-08 | d yr |
n | .1809268568238493 | 2.3298e-09 | deg/d |
Q | 3.707774115274592 | 3.183e-08 | au |
|
| | Orbit Determination Parameters
Additional Information
|